owner,sensor,date,latitude,longitude,vertical_datum,direction_of_sea_water_velocity,sea_water_speed,upward_sea_water_velocity,qcFlag 
TABS,ioos:station:wmo:42049:1,2014-11-01T00:00:00Z,28.3507,-96.0058,2.0,258.9569914,16.39352616,-99999.0,'11111222,11111222,99999999' 
TABS,ioos:station:wmo:42049:1,2014-11-01T00:30:00Z,28.3507,-96.0058,2.0,250.1935505,17.97320784,-99999.0,'11111222,11111222,99999999' 
TABS,ioos:station:wmo:42049:1,2014-11-01T01:00:00Z,28.3507,-96.0058,2.0,257.5146534,15.58862726,-99999.0,'11111222,11111222,99999999' 
TABS,ioos:station:wmo:42049:1,2014-11-01T01:30:00Z,28.3507,-96.0058,2.0,255.3503856,13.6021763,-99999.0,'11111222,11111222,99999999' 
TABS,ioos:station:wmo:42049:1,2014-11-01T02:00:00Z,28.3507,-96.0058,2.0,253.478008,12.97573505,-99999.0,'11111222,11111222,99999999' 
TABS,ioos:station:wmo:42049:1,2014-11-01T02:30:00Z,28.3507,-96.0058,2.0,258.9440527,15.01872165,-99999.0,'11111222,11111222,99999999' 
TABS,ioos:station:wmo:42049:1,2014-11-01T03:00:00Z,28.3507,-96.0058,2.0,258.3980947,13.87343505,-99999.0,'11111222,11111222,99999999' 
TABS,ioos:station:wmo:42049:1,2014-11-01T03:30:00Z,28.3507,-96.0058,2.0,254.7607225,15.48445995,-99999.0,'11111222,11111222,99999999' 
TABS,ioos:station:wmo:42049:1,2014-11-01T04:00:00Z,28.3507,-96.0058,2.0,251.6461749,15.56158411,-99999.0,'11111222,11111222,99999999' 
TABS,ioos:station:wmo:42049:1,2014-11-01T04:30:00Z,28.3507,-96.0058,2.0,240.6791718,17.58240598,-99999.0,'11111222,11111222,99999999' 
TABS,ioos:station:wmo:42049:1,2014-11-01T05:00:00Z,28.3507,-96.0058,2.0,233.9005979,12.33911666,-99999.0,'11111222,11111222,99999999' 
TABS,ioos:station:wmo:42049:1,2014-11-01T05:30:00Z,28.3507,-96.0058,2.0,246.3595611,15.33704665,-99999.0,'11111222,11111222,99999999' 
TABS,ioos:station:wmo:42049:1,2014-11-01T06:00:00Z,28.3507,-96.0058,2.0,246.9635635,16.20196593,-99999.0,'11111222,11111222,99999999' 
TABS,ioos:station:wmo:42049:1,2014-11-01T06:30:00Z,28.3507,-96.0058,2.0,244.1864296,23.51651547,-99999.0,'11111222,11111222,99999999' 
TABS,ioos:station:wmo:42049:1,2014-11-01T07:00:00Z,28.3507,-96.0058,2.0,233.539381,17.90445755,-99999.0,'11111222,11111222,99999999' 
TABS,ioos:station:wmo:42049:1,2014-11-01T07:30:00Z,28.3507,-96.0058,2.0,240.7247459,21.47237528,-99999.0,'11111222,11111222,99999999' 
TABS,ioos:station:wmo:42049:1,2014-11-01T08:00:00Z,28.3507,-96.0058,2.0,238.7668644,23.74081085,-99999.0,'11111222,11111222,99999999' 
TABS,ioos:station:wmo:42049:1,2014-11-01T08:30:00Z,28.3507,-96.0058,2.0,229.130436,23.65760977,-99999.0,'11111222,11111222,99999999' 
TABS,ioos:station:wmo:42049:1,2014-11-01T09:00:00Z,28.3507,-96.0058,2.0,235.2608818,22.42751212,-99999.0,'11111222,11111222,99999999' 
TABS,ioos:station:wmo:42049:1,2014-11-01T09:30:00Z,28.3507,-96.0058,2.0,246.4566753,23.15762078,-99999.0,'11111222,11111222,99999999' 
TABS,ioos:station:wmo:42049:1,2014-11-01T10:00:00Z,28.3507,-96.0058,2.0,244.0738601,24.45068915,-99999.0,'11111222,11111222,99999999' 
TABS,ioos:station:wmo:42049:1,2014-11-01T10:30:00Z,28.3507,-96.0058,2.0,234.1342695,24.18571686,-99999.0,'11111222,11111222,99999999' 
TABS,ioos:station:wmo:42049:1,2014-11-01T11:00:00Z,28.3507,-96.0058,2.0,226.5198959,25.85385271,-99999.0,'11111222,11111222,99999999' 
TABS,ioos:station:wmo:42049:1,2014-11-01T11:30:00Z,28.3507,-96.0058,2.0,232.3914386,24.67804895,-99999.0,'11111222,11111222,99999999' 
TABS,ioos:station:wmo:42049:1,2014-11-01T12:00:00Z,28.3507,-96.0058,2.0,230.1192009,24.48579384,-99999.0,'11111222,11111222,99999999' 
TABS,ioos:station:wmo:42049:1,2014-11-01T12:30:00Z,28.3507,-96.0058,2.0,231.4995068,20.73839434,-99999.0,'11111222,11111222,99999999' 
TABS,ioos:station:wmo:42049:1,2014-11-01T13:00:00Z,28.3507,-96.0058,2.0,240.5288803,12.7037829,-99999.0,'11111222,11111222,99999999' 
TABS,ioos:station:wmo:42049:1,2014-11-01T13:30:00Z,28.3507,-96.0058,2.0,233.6608202,19.20482491,-99999.0,'11111222,11111222,99999999' 
TABS,ioos:station:wmo:42049:1,2014-11-01T14:00:00Z,28.3507,-96.0058,2.0,228.8712132,21.57356252,-99999.0,'11111222,11111222,99999999' 
TABS,ioos:station:wmo:42049:1,2014-11-01T14:30:00Z,28.3507,-96.0058,2.0,246.5277437,23.12332589,-99999.0,'11111222,11111222,99999999' 
TABS,ioos:station:wmo:42049:1,2014-11-01T15:00:00Z,28.3507,-96.0058,2.0,236.1627814,23.8133576,-99999.0,'11111222,11111222,99999999' 
TABS,ioos:station:wmo:42049:1,2014-11-01T15:30:00Z,28.3507,-96.0058,2.0,245.5129554,22.1963961,-99999.0,'11111222,11111222,99999999' 
TABS,ioos:station:wmo:42049:1,2014-11-01T16:00:00Z,28.3507,-96.0058,2.0,233.8064564,29.46605505,-99999.0,'11111222,11111222,99999999' 
TABS,ioos:station:wmo:42049:1,2014-11-01T16:30:00Z,28.3507,-96.0058,2.0,240.1285723,23.65224091,-99999.0,'11111222,11111222,99999999' 
TABS,ioos:station:wmo:42049:1,2014-11-01T17:00:00Z,28.3507,-96.0058,2.0,234.7262342,22.68480549,-99999.0,'11111222,11111222,99999999' 
TABS,ioos:station:wmo:42049:1,2014-11-01T17:30:00Z,28.3507,-96.0058,2.0,236.3155981,26.450879,-99999.0,'11111222,11111222,99999999' 
TABS,ioos:station:wmo:42049:1,2014-11-01T18:00:00Z,28.3507,-96.0058,2.0,242.2706889,27.96109082,-99999.0,'11111222,11111222,99999999' 
TABS,ioos:station:wmo:42049:1,2014-11-01T18:30:00Z,28.3507,-96.0058,2.0,239.6231631,32.29316491,-99999.0,'11111222,11111222,99999999' 
TABS,ioos:station:wmo:42049:1,2014-11-01T19:00:00Z,28.3507,-96.0058,2.0,249.0537088,24.25265759,-99999.0,'11111222,11111222,99999999' 
TABS,ioos:station:wmo:42049:1,2014-11-01T19:30:00Z,28.3507,-96.0058,2.0,239.1719889,21.66033241,-99999.0,'11111222,11111222,99999999' 
TABS,ioos:station:wmo:42049:1,2014-11-01T20:00:00Z,28.3507,-96.0058,2.0,246.474314,20.49332818,-99999.0,'11111222,11111222,99999999' 
TABS,ioos:station:wmo:42049:1,2014-11-01T20:30:00Z,28.3507,-96.0058,2.0,247.1174085,18.3109612,-99999.0,'11111222,11111222,99999999' 
TABS,ioos:station:wmo:42049:1,2014-11-01T21:00:00Z,28.3507,-96.0058,2.0,246.1788146,21.76401158,-99999.0,'11111222,11111222,99999999' 
TABS,ioos:station:wmo:42049:1,2014-11-01T21:30:00Z,28.3507,-96.0058,2.0,252.1083206,22.32984774,-99999.0,'11111222,11111222,99999999' 
TABS,ioos:station:wmo:42049:1,2014-11-01T22:00:00Z,28.3507,-96.0058,2.0,247.151417,17.17782873,-99999.0,'11111222,11111222,99999999' 
TABS,ioos:station:wmo:42049:1,2014-11-01T22:30:00Z,28.3507,-96.0058,2.0,253.2304464,21.974467,-99999.0,'11111222,11111222,99999999' 
TABS,ioos:station:wmo:42049:1,2014-11-01T23:00:00Z,28.3507,-96.0058,2.0,246.4226191,20.67596189,-99999.0,'11111222,11111222,99999999' 
TABS,ioos:station:wmo:42049:1,2014-11-01T23:30:00Z,28.3507,-96.0058,2.0,244.7746679,20.46114611,-99999.0,'11111222,11111222,99999999' 
TABS,ioos:station:wmo:42049:1,2014-11-02T00:00:00Z,28.3507,-96.0058,2.0,245.5010622,26.04476915,-99999.0,'11111222,11111222,99999999' 
TABS,ioos:station:wmo:42049:1,2014-11-02T00:30:00Z,28.3507,-96.0058,2.0,254.5397153,26.74780926,-99999.0,'11111222,11111222,99999999' 
TABS,ioos:station:wmo:42049:1,2014-11-02T01:00:00Z,28.3507,-96.0058,2.0,260.0327601,22.59094066,-99999.0,'11111222,11111222,99999999' 
TABS,ioos:station:wmo:42049:1,2014-11-02T01:30:00Z,28.3507,-96.0058,2.0,262.4589601,21.03188294,-99999.0,'11111222,11111222,99999999' 
TABS,ioos:station:wmo:42049:1,2014-11-02T02:00:00Z,28.3507,-96.0058,2.0,253.867756,18.57124659,-99999.0,'11111222,11111222,99999999' 
TABS,ioos:station:wmo:42049:1,2014-11-02T02:30:00Z,28.3507,-96.0058,2.0,249.0932185,19.14009666,-99999.0,'11111222,11111222,99999999' 
TABS,ioos:station:wmo:42049:1,2014-11-02T03:00:00Z,28.3507,-96.0058,2.0,261.5076333,16.794121,-99999.0,'11111222,11111222,99999999' 
TABS,ioos:station:wmo:42049:1,2014-11-02T03:30:00Z,28.3507,-96.0058,2.0,249.5615087,15.92231139,-99999.0,'11111222,11111222,99999999' 
TABS,ioos:station:wmo:42049:1,2014-11-02T04:00:00Z,28.3507,-96.0058,2.0,260.7342382,19.12957919,-99999.0,'11111222,11111222,99999999' 
TABS,ioos:station:wmo:42049:1,2014-11-02T04:30:00Z,28.3507,-96.0058,2.0,240.0832668,14.91772436,-99999.0,'11111222,11111222,99999999' 
TABS,ioos:station:wmo:42049:1,2014-11-02T05:00:00Z,28.3507,-96.0058,2.0,264.9958347,16.0511713,-99999.0,'11111222,11111222,99999999' 
TABS,ioos:station:wmo:42049:1,2014-11-02T05:30:00Z,28.3507,-96.0058,2.0,258.0336447,13.36030688,-99999.0,'11111222,11111222,99999999' 
TABS,ioos:station:wmo:42049:1,2014-11-02T06:00:00Z,28.3507,-96.0058,2.0,230.6925912,13.68638009,-99999.0,'11111222,11111222,99999999' 
TABS,ioos:station:wmo:42049:1,2014-11-02T06:30:00Z,28.3507,-96.0058,2.0,239.7249472,13.54765293,-99999.0,'11111222,11111222,99999999' 
TABS,ioos:station:wmo:42049:1,2014-11-02T07:00:00Z,28.3507,-96.0058,2.0,241.9002521,15.03176636,-99999.0,'11111222,11111222,99999999' 
TABS,ioos:station:wmo:42049:1,2014-11-02T07:30:00Z,28.3507,-96.0058,2.0,241.6654029,16.22369872,-99999.0,'11111222,11111222,99999999' 
TABS,ioos:station:wmo:42049:1,2014-11-02T08:00:00Z,28.3507,-96.0058,2.0,244.186239,15.3407464,-99999.0,'11111222,11111222,99999999' 
TABS,ioos:station:wmo:42049:1,2014-11-02T08:30:00Z,28.3507,-96.0058,2.0,248.5412647,16.12792919,-99999.0,'11111222,11111222,99999999' 
TABS,ioos:station:wmo:42049:1,2014-11-02T09:00:00Z,28.3507,-96.0058,2.0,247.1631019,19.32475356,-99999.0,'11111222,11111222,99999999' 
TABS,ioos:station:wmo:42049:1,2014-11-02T09:30:00Z,28.3507,-96.0058,2.0,232.5129289,15.79091511,-99999.0,'11111222,11111222,99999999' 
TABS,ioos:station:wmo:42049:1,2014-11-02T10:00:00Z,28.3507,-96.0058,2.0,238.8179471,15.77969898,-99999.0,'11111222,11111222,99999999' 
TABS,ioos:station:wmo:42049:1,2014-11-02T10:30:00Z,28.3507,-96.0058,2.0,237.6566953,14.39290103,-99999.0,'11111222,11111222,99999999' 
TABS,ioos:station:wmo:42049:1,2014-11-02T11:00:00Z,28.3507,-96.0058,2.0,242.895484,13.78373317,-99999.0,'11111222,11111222,99999999' 
TABS,ioos:station:wmo:42049:1,2014-11-02T11:30:00Z,28.3507,-96.0058,2.0,245.8716106,14.40883757,-99999.0,'11111222,11111222,99999999' 
TABS,ioos:station:wmo:42049:1,2014-11-02T12:00:00Z,28.3507,-96.0058,2.0,230.0898957,12.67183096,-99999.0,'11111222,11111222,99999999' 
TABS,ioos:station:wmo:42049:1,2014-11-02T12:30:00Z,28.3507,-96.0058,2.0,247.7575724,10.38253341,-99999.0,'11111222,11111222,99999999' 
TABS,ioos:station:wmo:42049:1,2014-11-02T13:00:00Z,28.3507,-96.0058,2.0,233.8997988,12.20310206,-99999.0,'11111222,11111222,99999999' 
TABS,ioos:station:wmo:42049:1,2014-11-02T13:30:00Z,28.3507,-96.0058,2.0,250.286709,13.04447776,-99999.0,'11111222,11111222,99999999' 
TABS,ioos:station:wmo:42049:1,2014-11-02T14:00:00Z,28.3507,-96.0058,2.0,263.358439,10.72194479,-99999.0,'11111222,11111222,99999999' 
TABS,ioos:station:wmo:42049:1,2014-11-02T14:30:00Z,28.3507,-96.0058,2.0,262.1664579,8.731471812,-99999.0,'11133222,11111222,99999999' 
TABS,ioos:station:wmo:42049:1,2014-11-02T15:00:00Z,28.3507,-96.0058,2.0,253.0744416,10.20188708,-99999.0,'11111222,11111222,99999999' 
TABS,ioos:station:wmo:42049:1,2014-11-02T15:30:00Z,28.3507,-96.0058,2.0,251.7591995,12.10843095,-99999.0,'11111222,11111222,99999999' 
TABS,ioos:station:wmo:42049:1,2014-11-02T16:00:00Z,28.3507,-96.0058,2.0,255.2109361,10.34261089,-99999.0,'11111222,11111222,99999999' 
TABS,ioos:station:wmo:42049:1,2014-11-02T16:30:00Z,28.3507,-96.0058,2.0,251.8606873,11.01752241,-99999.0,'11111222,11111222,99999999' 
TABS,ioos:station:wmo:42049:1,2014-11-02T17:00:00Z,28.3507,-96.0058,2.0,265.1546171,9.945536687,-99999.0,'11133222,11111222,99999999' 
TABS,ioos:station:wmo:42049:1,2014-11-02T17:30:00Z,28.3507,-96.0058,2.0,246.6622336,9.213799433,-99999.0,'11133222,11111222,99999999' 
TABS,ioos:station:wmo:42049:1,2014-11-02T18:00:00Z,28.3507,-96.0058,2.0,247.4284803,9.952311289,-99999.0,'11133222,11111222,99999999' 
TABS,ioos:station:wmo:42049:1,2014-11-02T18:30:00Z,28.3507,-96.0058,2.0,241.5003263,7.81727574,-99999.0,'11133222,11111222,99999999' 
TABS,ioos:station:wmo:42049:1,2014-11-02T19:00:00Z,28.3507,-96.0058,2.0,275.2743045,7.833160282,-99999.0,'11133222,11111222,99999999' 
TABS,ioos:station:wmo:42049:1,2014-11-02T19:30:00Z,28.3507,-96.0058,2.0,250.3303574,9.982464626,-99999.0,'11133222,11111222,99999999' 
TABS,ioos:station:wmo:42049:1,2014-11-02T20:00:00Z,28.3507,-96.0058,2.0,246.4360062,9.480516864,-99999.0,'11133222,11111222,99999999' 
TABS,ioos:station:wmo:42049:1,2014-11-02T20:30:00Z,28.3507,-96.0058,2.0,252.2063578,9.882737475,-99999.0,'11133222,11111222,99999999' 
TABS,ioos:station:wmo:42049:1,2014-11-02T21:00:00Z,28.3507,-96.0058,2.0,245.0932668,11.58768743,-99999.0,'11111222,11111222,99999999' 
TABS,ioos:station:wmo:42049:1,2014-11-02T21:30:00Z,28.3507,-96.0058,2.0,248.9621173,11.56056227,-99999.0,'11111222,11111222,99999999' 
TABS,ioos:station:wmo:42049:1,2014-11-02T22:00:00Z,28.3507,-96.0058,2.0,246.9638696,11.55107354,-99999.0,'11111222,11111222,99999999' 
TABS,ioos:station:wmo:42049:1,2014-11-02T22:30:00Z,28.3507,-96.0058,2.0,242.5499864,9.848817188,-99999.0,'11133222,11111222,99999999' 
TABS,ioos:station:wmo:42049:1,2014-11-02T23:00:00Z,28.3507,-96.0058,2.0,251.5646734,8.569772459,-99999.0,'11133222,11111222,99999999' 
TABS,ioos:station:wmo:42049:1,2014-11-02T23:30:00Z,28.3507,-96.0058,2.0,242.4089463,6.995541437,-99999.0,'11133222,11111222,99999999' 
TABS,ioos:station:wmo:42049:1,2014-11-03T00:00:00Z,28.3507,-96.0058,2.0,269.4156946,7.850407633,-99999.0,'11133222,11111222,99999999' 
TABS,ioos:station:wmo:42049:1,2014-11-03T00:30:00Z,28.3507,-96.0058,2.0,246.3392776,10.59020774,-99999.0,'11111222,11111222,99999999' 
TABS,ioos:station:wmo:42049:1,2014-11-03T01:00:00Z,28.3507,-96.0058,2.0,260.2385677,8.19868892,-99999.0,'11133222,11111222,99999999' 
TABS,ioos:station:wmo:42049:1,2014-11-03T01:30:00Z,28.3507,-96.0058,2.0,259.2486372,9.649373037,-99999.0,'11133222,11111222,99999999' 
TABS,ioos:station:wmo:42049:1,2014-11-03T02:00:00Z,28.3507,-96.0058,2.0,275.5913679,6.671738904,-99999.0,'11133222,11111222,99999999' 
TABS,ioos:station:wmo:42049:1,2014-11-03T02:30:00Z,28.3507,-96.0058,2.0,273.435847,6.341395745,-99999.0,'11133222,11111222,99999999' 
TABS,ioos:station:wmo:42049:1,2014-11-03T03:00:00Z,28.3507,-96.0058,2.0,289.5774809,6.028498984,-99999.0,'11133222,11111222,99999999' 
TABS,ioos:station:wmo:42049:1,2014-11-03T03:30:00Z,28.3507,-96.0058,2.0,270.5241325,5.470228514,-99999.0,'11133222,11111222,99999999' 
TABS,ioos:station:wmo:42049:1,2014-11-03T04:00:00Z,28.3507,-96.0058,2.0,280.2191133,5.354941643,-99999.0,'11133222,11111222,99999999' 
TABS,ioos:station:wmo:42049:1,2014-11-03T04:30:00Z,28.3507,-96.0058,2.0,270.7180741,4.790375768,-99999.0,'11133222,11111222,99999999' 
TABS,ioos:station:wmo:42049:1,2014-11-03T05:00:00Z,28.3507,-96.0058,2.0,312.4695586,2.562225595,-99999.0,'11133222,11111222,99999999' 
TABS,ioos:station:wmo:42049:1,2014-11-03T05:30:00Z,28.3507,-96.0058,2.0,269.2951599,2.440184419,-99999.0,'11133222,11111222,99999999' 
TABS,ioos:station:wmo:42049:1,2014-11-03T06:00:00Z,28.3507,-96.0058,2.0,324.0934326,5.592790001,-99999.0,'11133222,11111222,99999999' 
TABS,ioos:station:wmo:42049:1,2014-11-03T06:30:00Z,28.3507,-96.0058,2.0,268.800543,4.300941757,-99999.0,'11133222,11111222,99999999' 
TABS,ioos:station:wmo:42049:1,2014-11-03T07:00:00Z,28.3507,-96.0058,2.0,270.7989148,5.740557464,-99999.0,'11133222,11111222,99999999' 
TABS,ioos:station:wmo:42049:1,2014-11-03T07:30:00Z,28.3507,-96.0058,2.0,264.9956708,4.356604182,-99999.0,'11133222,11111222,99999999' 
TABS,ioos:station:wmo:42049:1,2014-11-03T08:00:00Z,28.3507,-96.0058,2.0,248.6786229,4.208004278,-99999.0,'11133222,11111222,99999999' 
TABS,ioos:station:wmo:42049:1,2014-11-03T08:30:00Z,28.3507,-96.0058,2.0,252.2763839,5.091659847,-99999.0,'11133222,11111222,99999999' 
TABS,ioos:station:wmo:42049:1,2014-11-03T09:00:00Z,28.3507,-96.0058,2.0,291.8017794,7.377675786,-99999.0,'11133222,11111222,99999999' 
TABS,ioos:station:wmo:42049:1,2014-11-03T09:30:00Z,28.3507,-96.0058,2.0,244.8574075,4.142475106,-99999.0,'11133222,11111222,99999999' 
TABS,ioos:station:wmo:42049:1,2014-11-03T10:00:00Z,28.3507,-96.0058,2.0,200.7329526,3.785128796,-99999.0,'11133222,11111222,99999999' 
TABS,ioos:station:wmo:42049:1,2014-11-03T10:30:00Z,28.3507,-96.0058,2.0,339.325834,3.965362531,-99999.0,'11133222,11111222,99999999' 
TABS,ioos:station:wmo:42049:1,2014-11-03T11:00:00Z,28.3507,-96.0058,2.0,290.6865761,5.152164594,-99999.0,'11133222,11111222,99999999' 
TABS,ioos:station:wmo:42049:1,2014-11-03T11:30:00Z,28.3507,-96.0058,2.0,284.5877992,5.042548959,-99999.0,'11133222,11111222,99999999' 
TABS,ioos:station:wmo:42049:1,2014-11-03T12:00:00Z,28.3507,-96.0058,2.0,306.1369832,5.782473519,-99999.0,'11133222,11111222,99999999' 
TABS,ioos:station:wmo:42049:1,2014-11-03T12:30:00Z,28.3507,-96.0058,2.0,289.3937146,3.403086834,-99999.0,'11133222,11111222,99999999' 
TABS,ioos:station:wmo:42049:1,2014-11-03T13:00:00Z,28.3507,-96.0058,2.0,306.802266,1.686001186,-99999.0,'11133222,11111222,99999999' 
TABS,ioos:station:wmo:42049:1,2014-11-03T13:30:00Z,28.3507,-96.0058,2.0,334.6842843,4.513457655,-99999.0,'11133222,11111222,99999999' 
TABS,ioos:station:wmo:42049:1,2014-11-03T14:00:00Z,28.3507,-96.0058,2.0,355.638648,2.366854453,-99999.0,'11133222,11111222,99999999' 
TABS,ioos:station:wmo:42049:1,2014-11-03T14:30:00Z,28.3507,-96.0058,2.0,335.8902776,3.549661956,-99999.0,'11133222,11111222,99999999' 
TABS,ioos:station:wmo:42049:1,2014-11-03T15:00:00Z,28.3507,-96.0058,2.0,359.1840884,3.510356107,-99999.0,'11133222,11144222,99999999' 
TABS,ioos:station:wmo:42049:1,2014-11-03T15:30:00Z,28.3507,-96.0058,2.0,6.519996964,3.87506129,-99999.0,'11133222,11111222,99999999' 
TABS,ioos:station:wmo:42049:1,2014-11-03T16:00:00Z,28.3507,-96.0058,2.0,342.2555803,3.412345235,-99999.0,'11133222,11111222,99999999' 
TABS,ioos:station:wmo:42049:1,2014-11-03T16:30:00Z,28.3507,-96.0058,2.0,6.968450905,3.626789214,-99999.0,'11133222,11111222,99999999' 
TABS,ioos:station:wmo:42049:1,2014-11-03T17:00:00Z,28.3507,-96.0058,2.0,347.5211678,2.499039816,-99999.0,'11133222,11111222,99999999' 
TABS,ioos:station:wmo:42049:1,2014-11-03T17:30:00Z,28.3507,-96.0058,2.0,335.3877259,3.937765864,-99999.0,'11133222,11111222,99999999' 
TABS,ioos:station:wmo:42049:1,2014-11-03T18:00:00Z,28.3507,-96.0058,2.0,279.5320442,2.717517249,-99999.0,'11133222,11111222,99999999' 
TABS,ioos:station:wmo:42049:1,2014-11-03T18:30:00Z,28.3507,-96.0058,2.0,312.9123367,2.717094036,-99999.0,'11133222,11111222,99999999' 
TABS,ioos:station:wmo:42049:1,2014-11-03T19:00:00Z,28.3507,-96.0058,2.0,6.745774332,2.809448344,-99999.0,'11133222,11111222,99999999' 
TABS,ioos:station:wmo:42049:1,2014-11-03T19:30:00Z,28.3507,-96.0058,2.0,353.4607185,4.1268511,-99999.0,'11133222,11111222,99999999' 
TABS,ioos:station:wmo:42049:1,2014-11-03T20:00:00Z,28.3507,-96.0058,2.0,6.632709564,1.298691649,-99999.0,'11133222,11111222,99999999' 
TABS,ioos:station:wmo:42049:1,2014-11-03T20:30:00Z,28.3507,-96.0058,2.0,349.4392245,0.600166644,-99999.0,'11133222,11111222,99999999' 
TABS,ioos:station:wmo:42049:1,2014-11-03T21:00:00Z,28.3507,-96.0058,2.0,47.6196479,3.249015235,-99999.0,'11133222,11111222,99999999' 
TABS,ioos:station:wmo:42049:1,2014-11-03T21:30:00Z,28.3507,-96.0058,2.0,340.8805288,2.381365155,-99999.0,'11133222,11111222,99999999' 
TABS,ioos:station:wmo:42049:1,2014-11-03T22:00:00Z,28.3507,-96.0058,2.0,358.6863205,2.180573319,-99999.0,'11133222,11111222,99999999' 
TABS,ioos:station:wmo:42049:1,2014-11-03T22:30:00Z,28.3507,-96.0058,2.0,10.03330755,1.32018938,-99999.0,'11133222,11111222,99999999' 
TABS,ioos:station:wmo:42049:1,2014-11-03T23:00:00Z,28.3507,-96.0058,2.0,301.5660429,1.795689283,-99999.0,'11133222,11111222,99999999' 
TABS,ioos:station:wmo:42049:1,2014-11-03T23:30:00Z,28.3507,-96.0058,2.0,13.69461668,3.252460607,-99999.0,'11133222,11111222,99999999' 
TABS,ioos:station:wmo:42049:1,2014-11-04T00:00:00Z,28.3507,-96.0058,2.0,359.2396935,2.260199106,-99999.0,'11133222,11144222,99999999' 
TABS,ioos:station:wmo:42049:1,2014-11-04T00:30:00Z,28.3507,-96.0058,2.0,339.9630471,3.619060652,-99999.0,'11133222,11111222,99999999' 
TABS,ioos:station:wmo:42049:1,2014-11-04T01:00:00Z,28.3507,-96.0058,2.0,36.2369466,1.810110494,-99999.0,'11133222,11111222,99999999' 
TABS,ioos:station:wmo:42049:1,2014-11-04T01:30:00Z,28.3507,-96.0058,2.0,22.77053612,2.635393709,-99999.0,'11133222,11111222,99999999' 
TABS,ioos:station:wmo:42049:1,2014-11-04T02:00:00Z,28.3507,-96.0058,2.0,340.9013121,3.820287947,-99999.0,'11133222,11111222,99999999' 
TABS,ioos:station:wmo:42049:1,2014-11-04T02:30:00Z,28.3507,-96.0058,2.0,14.62105026,4.04085387,-99999.0,'11133222,11111222,99999999' 
TABS,ioos:station:wmo:42049:1,2014-11-04T03:00:00Z,28.3507,-96.0058,2.0,304.3898131,2.726554602,-99999.0,'11133222,11111222,99999999' 
TABS,ioos:station:wmo:42049:1,2014-11-04T03:30:00Z,28.3507,-96.0058,2.0,329.321388,5.174176263,-99999.0,'11133222,11111222,99999999' 
TABS,ioos:station:wmo:42049:1,2014-11-04T04:00:00Z,28.3507,-96.0058,2.0,340.7458758,5.306844637,-99999.0,'11133222,11111222,99999999' 
TABS,ioos:station:wmo:42049:1,2014-11-04T04:30:00Z,28.3507,-96.0058,2.0,350.34034,4.767598976,-99999.0,'11133222,11111222,99999999' 
TABS,ioos:station:wmo:42049:1,2014-11-04T05:00:00Z,28.3507,-96.0058,2.0,232.4310749,0.492036584,-99999.0,'11133222,11111222,99999999' 
TABS,ioos:station:wmo:42049:1,2014-11-04T05:30:00Z,28.3507,-96.0058,2.0,329.5491708,4.025232913,-99999.0,'11133222,11111222,99999999' 
TABS,ioos:station:wmo:42049:1,2014-11-04T06:00:00Z,28.3507,-96.0058,2.0,320.1947324,2.811689883,-99999.0,'11133222,11111222,99999999' 
TABS,ioos:station:wmo:42049:1,2014-11-04T06:30:00Z,28.3507,-96.0058,2.0,277.371852,2.883834253,-99999.0,'11133222,11111222,99999999' 
TABS,ioos:station:wmo:42049:1,2014-11-04T07:00:00Z,28.3507,-96.0058,2.0,319.7337429,2.227913822,-99999.0,'11133222,11111222,99999999' 
TABS,ioos:station:wmo:42049:1,2014-11-04T07:30:00Z,28.3507,-96.0058,2.0,58.73634141,1.965400722,-99999.0,'11133222,11111222,99999999' 
TABS,ioos:station:wmo:42049:1,2014-11-04T08:00:00Z,28.3507,-96.0058,2.0,260.4166568,3.123587681,-99999.0,'11133222,11111222,99999999' 
TABS,ioos:station:wmo:42049:1,2014-11-04T08:30:00Z,28.3507,-96.0058,2.0,266.8459827,3.635505467,-99999.0,'11133222,11111222,99999999' 
TABS,ioos:station:wmo:42049:1,2014-11-04T09:00:00Z,28.3507,-96.0058,2.0,241.3066516,2.77016245,-99999.0,'11133222,11111222,99999999' 
TABS,ioos:station:wmo:42049:1,2014-11-04T09:30:00Z,28.3507,-96.0058,2.0,233.1777942,4.772001676,-99999.0,'11133222,11111222,99999999' 
TABS,ioos:station:wmo:42049:1,2014-11-04T10:00:00Z,28.3507,-96.0058,2.0,259.0822444,5.438428082,-99999.0,'11133222,11111222,99999999' 
TABS,ioos:station:wmo:42049:1,2014-11-04T10:30:00Z,28.3507,-96.0058,2.0,274.5743315,1.755591069,-99999.0,'11133222,11111222,99999999' 
TABS,ioos:station:wmo:42049:1,2014-11-04T11:00:00Z,28.3507,-96.0058,2.0,244.5827668,4.240436298,-99999.0,'11133222,11111222,99999999' 
TABS,ioos:station:wmo:42049:1,2014-11-04T11:30:00Z,28.3507,-96.0058,2.0,257.6056842,4.146637192,-99999.0,'11133222,11111222,99999999' 
TABS,ioos:station:wmo:42049:1,2014-11-04T12:00:00Z,28.3507,-96.0058,2.0,266.0866828,7.327079909,-99999.0,'11133222,11111222,99999999' 
TABS,ioos:station:wmo:42049:1,2014-11-04T12:30:00Z,28.3507,-96.0058,2.0,282.3888551,5.313727505,-99999.0,'11133222,11111222,99999999' 
TABS,ioos:station:wmo:42049:1,2014-11-04T13:00:00Z,28.3507,-96.0058,2.0,268.0102194,5.473298822,-99999.0,'11133222,11111222,99999999' 
TABS,ioos:station:wmo:42049:1,2014-11-04T13:30:00Z,28.3507,-96.0058,2.0,273.1519098,6.730178304,-99999.0,'11133222,11111222,99999999' 
TABS,ioos:station:wmo:42049:1,2014-11-04T14:00:00Z,28.3507,-96.0058,2.0,286.4960344,7.008459174,-99999.0,'11133222,11111222,99999999' 
TABS,ioos:station:wmo:42049:1,2014-11-04T14:30:00Z,28.3507,-96.0058,2.0,295.9863608,7.965280912,-99999.0,'11133222,11111222,99999999' 
TABS,ioos:station:wmo:42049:1,2014-11-04T15:00:00Z,28.3507,-96.0058,2.0,300.8068438,9.372432982,-99999.0,'11133222,11111222,99999999' 
TABS,ioos:station:wmo:42049:1,2014-11-04T15:30:00Z,28.3507,-96.0058,2.0,276.7987205,8.701178081,-99999.0,'11133222,11111222,99999999' 
TABS,ioos:station:wmo:42049:1,2014-11-04T16:00:00Z,28.3507,-96.0058,2.0,295.6310938,6.033713616,-99999.0,'11133222,11111222,99999999' 